Details From LFML - Marseille Provence
To LFKB - Bastia Poretta
Flight Number -
Tags generated
Created
Modified
Stats Distance 196 nm / 362 km
Max Altitude 19,000 ft / 5,791 m
Waypoints 3
Social Downloads 10
Likes 0
Share VATSIM

Download

Looking for another format? Having issues loading an existing format? Contact us
Advertisement - Login to hide

Notes

Basic altitude profile: - Ascent Rate: 1500ft/min - Ascent Speed: 250kts - Cruise Altitude: 19000ft - Cruise Speed: 250kts - Descent Rate: 1500ft/min - Descent Speed: 250kts

Route

LFML OMARD LFKB

ID Type Via Altitude Latitude Longitude Leg Dist Tot Dist Heading (true) Name
O LFML APT - 0 ft / 0 m 43.43589˚ 5.21328˚ - 0 nm - Marseille Provence
OMARD FIX - 19,000 ft / 5,791 m 43.10472˚ 7.59111˚ 105 nm 105 nm 100° / 102° -
O LFKB APT - 0 ft / 0 m 42.55251˚ 9.48371˚ 89 nm 195 nm 111° / 112° Bastia Poretta

Altitude Profile

Advertisement - Login to hide

Weather


0- 5 10 15 20 25 30 35+ Temperature / ° C

Clouds and Precipitation
Forecast for 2018-05-24 18:00 UTC. Updated 5 hours ago

Ground ~20,000 ft ~40,000 ft Winds

LFML

Details ICAO LFML (MRS)
Name Marseille Provence
Region France
Timezone Europe/Paris (UTC+2.0)
Stats Elevation 74 ft / 23 m (AMSL)
Location 43.435892° 5.213282°
Runways 2
Magnetic Variation 1.603° E

METAR

LFML 242200Z AUTO 13005KT CAVOK 17/13 Q1017 NOSIG

Decode

TAF

TAF TAF LFML 242000Z 2421/2603 VRB03KT CAVOK PROB30 TEMPO 2500/2506 4000 BR TEMPO 2509/2516 24009KT TX28/2513Z TN15/2503Z

Decode

Departure Runways

ID Width Length Bearing (true) Bearing (mag) Surface Threshold Offset Overrun Length
13L 148 ft / 45 m 11,478 ft / 3,499 m 133.99° 132.39° Asphalt 1,115 ft / 340 m 0 ft / 0 m
13R 148 ft / 45 m 7,981 ft / 2,433 m 134.90° 133.30° Asphalt 0 ft / 0 m 0 ft / 0 m
31L 148 ft / 45 m 7,981 ft / 2,433 m 314.91° 313.31° Asphalt 344 ft / 105 m 0 ft / 0 m
31R 148 ft / 45 m 11,478 ft / 3,499 m 314.01° 312.41° Asphalt 2,165 ft / 660 m 0 ft / 0 m

LFKB

Details ICAO LFKB (BIA)
Name Bastia Poretta
Region France
Timezone Europe/Paris (UTC+2.0)
Stats Elevation 25 ft / 8 m (AMSL)
Location 42.552508° 9.483709°
Runways 1
Magnetic Variation 2.533° E

METAR

LFKB 242200Z AUTO 24003KT CAVOK 17/16 Q1017 NOSIG

Decode

TAF

TAF LFKB 242000Z 2421/2521 23003KT 9999 FEW025 PROB30 2500/2505 BKN014 TX24/2513Z TN14/2504Z

Decode

Destination Runways

ID Width Length Bearing (true) Bearing (mag) Surface Threshold Offset Overrun Length
16 148 ft / 45 m 8,273 ft / 2,522 m 162.83° 160.30° Concrete 0 ft / 0 m 131 ft / 40 m
34 148 ft / 45 m 8,273 ft / 2,522 m 342.84° 340.31° Concrete 0 ft / 0 m 0 ft / 0 m

Approach Navaids

Runway Type Ident Frequency Range Bearing (true) Bearing (mag) Slope Elevation
34 Localiser BP 111.35 MHz 27 nm / 50 km 342.81° 340.28° - 25 ft / 8 m (AMSL)
34 Glidescope BP 111.35 MHz 27 nm / 50 km 342.81° 340.28° 3.00° 25 ft / 8 m (AMSL)
34 DME BP 111.35 MHz 18 nm / 33 km - - - 69 ft / 21 m (AMSL)

Popular Alternatives